Regional Weather Roundup
Issued by NWS

Home | Current Version | Previous Version | Text Only | Print | Product List | Glossary On
Versions: 1 2 3 4 5 6 7 8 9 10 11 12 13 14 15 16 17 18 19 20 21 22 23 24 25 26 27 28 29 30 31 32 33 34 35 36 37 38 39 40 41 42 43 44 45 46 47 48 49 50
000
ASUS43 KLSX 011907
RWRMO

WEATHER SUMMARY FOR MISSOURI
NATIONAL WEATHER SERVICE SPRINGFIELD MO
200 PM CDT MON SEP 01 2014

NOTE: "FAIR" INDICATES FEW OR NO CLOUDS BELOW 12,000 FEET WITH NO
       SIGNIFICANT WEATHER AND/OR OBSTRUCTIONS TO VISIBILITY.
       CURRENT SKY AND/OR WEATHER CONDITIONS ARE NOT AVAILABLE FOR
       CHILLICOTHE AND FARMINGTON.

MOZ001>031-035>038-043-044-053-054-012000-
...NORTHERN AND WESTERN MISSOURI...

CITY           SKY/WX    TMP DP  RH WIND       PRES   REMARKS
KANSAS CTY INT CLOUDY    77  67  71 W8        29.91R
KANSAS C DTWN  CLOUDY    81  66  60 W9        29.89S
ST JOSEPH      PTSUNNY   79  67  66 W7        29.89S
CHILLICOTHE      N/A     80  68  66 W6        29.89S
KIRKSVILLE     PTSUNNY   76  65  68 SW14G21   29.89R

$$
MOZ066>068-077>081-088>096-101>105-012000-
...SOUTHWEST MISSOURI...

CITY           SKY/WX    TMP DP  RH WIND       PRES   REMARKS
SPRINGFIELD    SUNNY     82  65  56 S22G30    29.92F
JOPLIN         MOSUNNY   84  68  58 S17G29    29.89F

$$
MOZ032>034-039>042-045>050-055>058-069>072-012000-
...CENTRAL MISSOURI...

CITY           SKY/WX    TMP DP  RH WIND       PRES   REMARKS
COLUMBIA       PTSUNNY   81  65  58 W14       29.91S
JEFFERSON CITY PTSUNNY   82  66  58 SW14G22   29.90S
ROLLA          CLOUDY    78  67  68 W9        29.91R
SEDALIA        PTSUNNY   80  66  62 W15       29.92S
WHITEMAN AFB   SUNNY     79  68  69 SW15      29.91S
OSAGE BEACH    MOSUNNY   81  64  57 SW5       29.91F

$$
MOZ051-052-059>065-012000-
...EAST CENTRAL MISSOURI...

CITY           SKY/WX    TMP DP  RH WIND       PRES   REMARKS
ST LOUIS INTL  CLOUDY    86  66  51 NW12      29.91R
SPIRIT OF STL  PTSUNNY   81  64  56 SW12      29.89S
ST CHARLES     PTSUNNY   82  65  56 NW13G18   29.89R

$$
MOZ072>076-082>087-097>100-106>115-012000-
...SOUTH CENTRAL AND SOUTHEAST MISSOURI...

CITY           SKY/WX    TMP DP  RH WIND       PRES   REMARKS
CAPE GIRARDEAU CLOUDY    81  68  64 S18G25    29.88F
FARMINGTON     CLOUDY    79  64  61 W6        29.95R
POPLAR BLUFF   CLOUDY    82  69  64 S7        29.93F
WEST PLAINS    MOSUNNY   78  67  68 S8        29.99F

$$


USA.gov is the U.S. government's official web portal to all federal, state and local government web resources and services.